Change the Weather History Date:

Thursday, January 24, 2013

  Actual Average Record
Temperature  
Mean Temperature 62 °F -  
Max Temperature 75 °F 64 °F 81 °F (1937)
Min Temperature 50 °F 40 °F 19 °F (2003)
Degree Days  
Heating Degree Days 2    
Growing Degree Days 12 (Base 50)    
Moisture  
Dew Point 49 °F    
Average Humidity 66    
Maximum Humidity 88    
Minimum Humidity 41    
Precipitation  
Precipitation 0.00 in - - ()
Sea Level Pressure  
Sea Level Pressure 30.25 in    
Wind  
Wind Speed 10 mph (West)    
Max Wind Speed 17 mph    
Max Gust Speed 26 mph    
Visibility 10 miles    
Events      
Averages and records for this station are not official NWS values.
T = Trace of Precipitation, MM = Missing Value Source: NWS Daily Summary

Daily Weather History Graph

Daily Weather History Graph

Search for Another Location

Airport or City:

Trip Planner

Search our weather history database for the weather conditions in past years. The results will help you decide how hot, cold, wet, or windy it might be!

Date:

Astronomy

Jan. 24, 2013 Rise Set
Actual Time 7:22 AM EST 5:54 PM EST
Civil Twilight 6:56 AM EST 6:19 PM EST
Nautical Twilight 6:27 AM EST 6:49 PM EST
Astronomical Twilight 5:58 AM EST 7:18 PM EST
Moon 3:56 PM EST (1/24) 5:16 AM EST (1/24)
Length of Visible Light 11h 23m
Length of Day
10h 31m
Waxing Gibbous, 94% of the Moon is Illuminated
Jan 24
Waxing Gibbous
Jan 26
Full
Feb 3
Last Quarter
Feb 10
New
Feb 17
First Quarter

Hourly Weather History & Observations

Time (EST) Temp. Dew Point Humidity Pressure Visibility Wind Dir Wind Speed Gust Speed Precip Events Conditions
12:15 AM 50.0 °F 42.8 °F 76% 30.27 in 10.0 mi SW 6.9 mph - N/A   Clear
12:35 AM 50.0 °F 42.8 °F 76% 30.27 in 10.0 mi WSW 6.9 mph - N/A   Clear
12:55 AM 50.0 °F 42.8 °F 76% 30.26 in 10.0 mi SW 6.9 mph - N/A   Clear
1:15 AM 50.0 °F 41.0 °F 71% 30.26 in 10.0 mi SW 6.9 mph - N/A   Clear
1:35 AM 50.0 °F 41.0 °F 71% 30.26 in 10.0 mi WSW 5.8 mph - N/A   Clear
1:55 AM 51.8 °F 42.8 °F 71% 30.26 in 10.0 mi WSW 8.1 mph - N/A   Clear
2:15 AM 51.8 °F 42.8 °F 71% 30.25 in 10.0 mi WSW 8.1 mph - N/A   Clear
2:35 AM 51.8 °F 42.8 °F 71% 30.26 in 10.0 mi WSW 8.1 mph - N/A   Clear
2:55 AM 51.8 °F 42.8 °F 71% 30.25 in 10.0 mi WSW 8.1 mph - N/A   Clear
3:15 AM 51.8 °F 42.8 °F 71% 30.25 in 10.0 mi WSW 8.1 mph - N/A   Mostly Cloudy
3:35 AM 51.8 °F 42.8 °F 71% 30.24 in 10.0 mi WSW 9.2 mph - N/A   Scattered Clouds
3:55 AM 51.8 °F 42.8 °F 71% 30.24 in 10.0 mi WSW 8.1 mph - N/A   Scattered Clouds
4:15 AM 51.8 °F 42.8 °F 71% 30.23 in 10.0 mi WSW 9.2 mph - N/A   Scattered Clouds
4:35 AM 51.8 °F 42.8 °F 71% 30.23 in 10.0 mi WSW 11.5 mph - N/A   Clear
4:55 AM 51.8 °F 42.8 °F 71% 30.22 in 10.0 mi WSW 9.2 mph - N/A   Clear
5:15 AM 51.8 °F 44.6 °F 76% 30.23 in 10.0 mi WSW 11.5 mph 17.3 mph N/A   Clear
5:35 AM 51.8 °F 44.6 °F 76% 30.23 in 10.0 mi WSW 11.5 mph - N/A   Clear
5:55 AM 51.8 °F 44.6 °F 76% 30.24 in 10.0 mi WSW 10.4 mph - N/A   Scattered Clouds
6:15 AM 51.8 °F 44.6 °F 76% 30.24 in 10.0 mi WSW 13.8 mph - N/A   Scattered Clouds
6:35 AM 53.6 °F 46.4 °F 77% 30.24 in 10.0 mi WSW 13.8 mph - N/A   Mostly Cloudy
6:55 AM 53.6 °F 48.2 °F 82% 30.24 in 10.0 mi WSW 11.5 mph - N/A   Overcast
7:15 AM 55.4 °F 50.0 °F 82% 30.25 in 10.0 mi WSW 12.7 mph - N/A   Overcast
7:35 AM 53.6 °F 50.0 °F 88% 30.24 in 10.0 mi WSW 13.8 mph 17.3 mph N/A   Mostly Cloudy
7:55 AM 53.6 °F 50.0 °F 88% 30.24 in 10.0 mi WSW 10.4 mph 18.4 mph N/A   Scattered Clouds
8:15 AM 55.4 °F 50.0 °F 82% 30.24 in 10.0 mi WSW 12.7 mph - N/A   Scattered Clouds
8:35 AM 57.2 °F 50.0 °F 77% 30.25 in 10.0 mi WSW 10.4 mph 18.4 mph N/A   Clear
8:55 AM 59.0 °F 50.0 °F 72% 30.25 in 10.0 mi WSW 10.4 mph 18.4 mph N/A   Clear
9:15 AM 59.0 °F 50.0 °F 72% 30.26 in 10.0 mi West 10.4 mph 18.4 mph N/A   Clear
9:35 AM 60.8 °F 51.8 °F 72% 30.26 in 10.0 mi West 9.2 mph - N/A   Clear
9:55 AM 64.4 °F 51.8 °F 64% 30.25 in 10.0 mi West 15.0 mph 23.0 mph N/A   Clear
10:15 AM 64.4 °F 51.8 °F 64% 30.25 in 10.0 mi West 13.8 mph 19.6 mph N/A   Clear
10:35 AM 68.0 °F 51.8 °F 56% 30.26 in 10.0 mi West 16.1 mph 19.6 mph N/A   Clear
10:55 AM 68.0 °F 51.8 °F 56% 30.26 in 10.0 mi West 17.3 mph 21.9 mph N/A   Clear
11:15 AM 69.8 °F 51.8 °F 53% 30.25 in 10.0 mi West 17.3 mph 23.0 mph N/A   Clear
11:35 AM 69.8 °F 51.8 °F 53% 30.25 in 10.0 mi West 15.0 mph 21.9 mph N/A   Clear
11:55 AM 71.6 °F 51.8 °F 50% 30.24 in 10.0 mi West 16.1 mph 21.9 mph N/A   Clear
12:15 PM 71.6 °F 53.6 °F 53% 30.23 in 10.0 mi West 16.1 mph 24.2 mph N/A   Clear
12:35 PM 73.4 °F 53.6 °F 50% 30.21 in 10.0 mi NW 12.7 mph 19.6 mph N/A   Scattered Clouds
12:55 PM 73.4 °F 51.8 °F 47% 30.21 in 10.0 mi West 16.1 mph 23.0 mph N/A   Scattered Clouds
1:15 PM 75.2 °F 53.6 °F 47% 30.20 in 10.0 mi West 16.1 mph 20.7 mph N/A   Scattered Clouds
1:35 PM 73.4 °F 51.8 °F 47% 30.19 in 10.0 mi West 15.0 mph 26.5 mph N/A   Scattered Clouds
1:55 PM 73.4 °F 51.8 °F 47% 30.19 in 10.0 mi West 16.1 mph 25.3 mph N/A   Mostly Cloudy
2:15 PM 73.4 °F 51.8 °F 47% 30.19 in 10.0 mi WNW 12.7 mph 20.7 mph N/A   Mostly Cloudy
2:35 PM 73.4 °F 51.8 °F 47% 30.18 in 10.0 mi WNW 15.0 mph 26.5 mph N/A   Scattered Clouds
2:55 PM 73.4 °F 51.8 °F 47% 30.18 in 10.0 mi West 13.8 mph 21.9 mph N/A   Scattered Clouds
3:15 PM 73.4 °F 51.8 °F 47% 30.18 in 10.0 mi WNW 12.7 mph 17.3 mph N/A   Scattered Clouds
3:35 PM 73.4 °F 50.0 °F 44% 30.18 in 10.0 mi WNW 13.8 mph 20.7 mph N/A   Scattered Clouds
3:55 PM 73.4 °F 50.0 °F 44% 30.19 in 10.0 mi West 12.7 mph 24.2 mph N/A   Clear
4:15 PM 73.4 °F 50.0 °F 44% 30.20 in 10.0 mi WNW 12.7 mph 20.7 mph N/A   Scattered Clouds
4:35 PM 73.4 °F 48.2 °F 41% 30.20 in 10.0 mi West 11.5 mph 17.3 mph N/A   Scattered Clouds
4:55 PM 71.6 °F 50.0 °F 46% 30.21 in 10.0 mi WNW 9.2 mph - N/A   Scattered Clouds
5:15 PM 71.6 °F 50.0 °F 46% 30.21 in 10.0 mi NW 8.1 mph - N/A   Scattered Clouds
5:35 PM 69.8 °F 50.0 °F 49% 30.22 in 10.0 mi NW 4.6 mph - N/A   Scattered Clouds
5:55 PM 68.0 °F 50.0 °F 52% 30.23 in 10.0 mi NW 4.6 mph - N/A   Clear
6:15 PM 68.0 °F 50.0 °F 52% 30.23 in 10.0 mi NW 3.5 mph - N/A   Clear
6:35 PM 66.2 °F 50.0 °F 56% 30.24 in 10.0 mi Calm Calm - N/A   Clear
6:55 PM 64.4 °F 50.0 °F 59% 30.25 in 10.0 mi NNW 3.5 mph - N/A   Clear
7:15 PM 62.6 °F 50.0 °F 63% 30.26 in 10.0 mi Calm Calm - N/A   Clear
7:35 PM 59.0 °F 50.0 °F 72% 30.26 in 10.0 mi Calm Calm - N/A   Clear
7:55 PM 55.4 °F 50.0 °F 82% 30.27 in 10.0 mi Calm Calm - N/A   Clear
8:15 PM 55.4 °F 50.0 °F 82% 30.28 in 10.0 mi Calm Calm - N/A   Clear
8:35 PM 55.4 °F 50.0 °F 82% 30.29 in 10.0 mi NE 17.3 mph 23.0 mph N/A   Scattered Clouds
8:55 PM 59.0 °F 53.6 °F 82% 30.31 in 10.0 mi NE 11.5 mph 18.4 mph N/A   Scattered Clouds
9:15 PM 59.0 °F 51.8 °F 77% 30.32 in 10.0 mi NE 11.5 mph 18.4 mph N/A   Clear
9:35 PM 57.2 °F 51.8 °F 82% 30.33 in 10.0 mi NE 12.7 mph 18.4 mph N/A   Clear
9:55 PM 55.4 °F 50.0 °F 82% 30.34 in 10.0 mi NE 13.8 mph 18.4 mph N/A   Clear
10:15 PM 55.4 °F 50.0 °F 82% 30.34 in 10.0 mi NE 11.5 mph 16.1 mph N/A   Clear
10:35 PM 55.4 °F 48.2 °F 77% 30.35 in 10.0 mi NE 12.7 mph 19.6 mph N/A   Clear
10:55 PM 55.4 °F 48.2 °F 77% 30.35 in 10.0 mi NE 11.5 mph 19.6 mph N/A   Clear
11:15 PM 55.4 °F 48.2 °F 77% 30.36 in 10.0 mi NE 12.7 mph - N/A   Clear
11:35 PM 55.4 °F 48.2 °F 77% 30.36 in 10.0 mi NE 11.5 mph 19.6 mph N/A   Mostly Cloudy
11:55 PM 55.4 °F 48.2 °F 77% 30.36 in 10.0 mi NE 12.7 mph 25.3 mph N/A   Overcast